Satellite-Ground Cal/Val Site Overpasses Predictions

Prediction of Satellite NPP Overpassing Cal/Val Site: Antarctic Dome C

Ground Cal/Val Site Location: Latitude: -75.10, Longitude: 123.35; Satellite-Ground Site NADIR distance within 100 km.

Table of predicted overpasses for the next 14.0 days since TLE Epoch: 1/10/2025
Interval Starting Time Ending Time Minimum Distance Time Minimum Distance (km)
1 01/11/2025 07:26:03 01/11/2025 07:26:31 01/11/2025 07:26:17 34.12
2 01/14/2025 14:49:31 01/14/2025 14:50:00 01/14/2025 14:49:46 9.19
3 01/16/2025 07:32:22 01/16/2025 07:32:51 01/16/2025 07:32:36 3.60
4 01/19/2025 14:55:52 01/19/2025 14:56:20 01/19/2025 14:56:06 27.54
5 01/20/2025 14:37:08 01/20/2025 14:37:25 01/20/2025 14:37:16 79.81
6 01/21/2025 07:38:42 01/21/2025 07:39:09 01/21/2025 07:38:56 38.59
7 01/22/2025 07:19:57 01/22/2025 07:20:17 01/22/2025 07:20:07 71.16
